sat.trackr.live / text

‹ back to catalog

STARLINK-32908

NORAD 63084 · 2025-037H

PAYLOAD ACTIVE UNKNOWN

§ Identity

Operator
Country
US
Launch date
2025-02-23
Launch site
AFWTR
Launch vehicle
Mass (kg)
RCS (m²)

Purposes: comms

External: N2YO · Heavens-Above · Gunter

§ Orbital elements

Epoch: 2026-09-20T07:47:36.737664Z

Period
94.14 min
Inclination
70.0006°
Eccentricity
0.0002777
Mean motion
15.29595062 rev/d
Perigee alt
475.1 km
Apogee alt
478.9 km
Semi-major
6,855.2 km
B*
4.6514e-4
RAAN
221.4331°
Arg perigee
277.0558°
Mean anomaly
83.0301°
Rev number
8,767

§ Raw data

STARLINK-329081 63084U 25037H   26263.32473076  .00013273  00000+0  46514-3 0  99972 63084  70.0006 221.4331 0002777 277.0558  83.0301 15.29595062 87676

JSON: /api/v1/satellites/63084 · /tle

For live sub-satellite position, see the globe view (requires WebGL).

§ Visibility from observer

Set your observer location to see the next 7 days of passes ≥ 10°. The values pass through the URL so the page stays shareable.

No JS? Fill the form by hand. The geolocation button needs JavaScript.